Flag for United Kingdom Weather past 2 weeks in Loughton, England, United Kingdom

Now
63 °F

Mild.


Feels Like: 63 °F
Forecast: 47 / 59 °F
Wind: 13 mph from Southwest

Location: Gravesend-Broadness

Current Time: Oct 20, 2014 at 1:00:48 PM

Latest Report: Oct 20, 2014 at 12:00 PM


Visibility: N/A

Pressure: 30.03 "Hg

Humidity: 65%

Dew point: 51 °F

Location of LoughtonLocation

Historic Weather in Loughton — Graph

°F

Loughton temperature yesterday

Maximum temperature yesterday: 67 °F (at 3:00 PM)
Minimum temperature yesterday: 57 °F (at 10:00 PM)
Average temperature yesterday: 63 °F

Past Weeks' High & Low Weather Summary

 TemperatureHumidityPressure
High69 °F (Oct 18, 11:00 AM)100% (Oct 13, 10:00 AM)30.16 "Hg (Oct 13, 10:00 AM)
Low41 °F (Oct 12, 4:00 AM)41% (Oct 5, 2:00 PM)29.32 "Hg (Oct 7, 8:00 AM)
Average57 °F86%29.70 "Hg
* Reported Oct 5 11:00 AM — Oct 20 11:00 AM, Loughton, Weather by CustomWeather, © 2014

Note: Actual official high and low records may vary slightly from our data, if they occured in-between our weather recording intervals... More about our weather records

Advertising

Loughton weather history for previous 24 hours

 ConditionsComfort  
Time TempWeatherWind HumidityBarometerVisibility
11:00 AM
Oct 20
61 °FCool.12 mph72%30.04 "HgN/A
10:00 AM58 °FCool.12 mph79%30.04 "HgN/A
9:00 AM56 °FCool.12 mph83%30.03 "HgN/A
8:00 AM55 °FCool.8 mph86%30.03 "HgN/A
7:00 AM57 °FCool.12 mph82%30.02 "HgN/A
6:00 AM56 °FCool.10 mph83%30.02 "HgN/A
4:00 AM57 °FCool.15 mph82%30.01 "HgN/A
3:00 AM58 °FCool.16 mph80%30.01 "HgN/A
2:00 AM58 °FCool.15 mph81%30.01 "HgN/A
1:00 AM57 °FCool.10 mph84%30.00 "HgN/A
12:00 AM57 °FCool.13 mph83%30.00 "HgN/A
11:00 PM
Oct 19
58 °FCool.14 mph84%29.99 "HgN/A
10:00 PM57 °FCool.10 mph88%29.99 "HgN/A
9:00 PM58 °FCool.14 mph84%29.97 "HgN/A
8:00 PM58 °FCool.13 mph83%29.96 "HgN/A
7:00 PM59 °FCool.15 mph80%29.94 "HgN/A
6:00 PM61 °FCool.16 mph74%29.93 "HgN/A
5:00 PM64 °FMild.16 mph69%29.92 "HgN/A
4:00 PM66 °FMild.15 mph63%29.91 "HgN/A
3:00 PM67 °FMild.17 mph63%29.92 "HgN/A
2:00 PM65 °FMild.17 mph67%29.92 "HgN/A
1:00 PM66 °FMild.14 mph69%29.92 "HgN/A
Weather by CustomWeather, © 2014

See weather overviewHow to use our weather pages